AirNav   Jet Aviation Boston
 
 1141 users online  

18Y Milaca Municipal Airport
Milaca, Minnesota, USA

GOING TO MILACA?


FAA INFORMATION EFFECTIVE 19 JULY 2018

Location

FAA Identifier: 18Y
Lat/Long: 45-46-20.8730N / 093-37-55.8640W
45-46.347883N / 093-37.931067W
45.7724647 / -93.6321844
(estimated)
Elevation: 1100 ft. / 335 m (estimated)
Variation: 03E (1985)
From city: 2 miles NE of MILACA, MN
Time zone: UTC -5 (UTC -6 during Standard Time)
Zip code: 56353

Airport Operations

Airport use: Open to the public
Activation date: 06/1969
Control tower: no
ARTCC: MINNEAPOLIS CENTER
FSS: PRINCETON FLIGHT SERVICE STATION
NOTAMs facility: PNM (NOTAM-D service available)
Attendance: UNATNDD
FOR SVC CALL 320-267-6898.
Wind indicator: lighted
Segmented circle: no
Lights: SS-SR
Beacon: white-green (lighted land airport)
Operates sunset to sunrise.

Airport Communications

CTAF: 122.9
WX AWOS-3 at PNM (13 nm S): 119.025 (763-389-0615)
WX AWOS-3 at JMR (17 nm NE): 123.925 (320-679-1629)

Nearby radio navigation aids

VOR radial/distance  VOR name  Freq  Var
STCr050/22.3ST CLOUD VOR/DME112.1003E
GEPr338/39.2GOPHER VORTAC117.3006E

 
NDB name  Hdg/Dist  Freq  Var  ID
PRINCETON352/12.536803EPNM .--. -. --
MORA245/16.732700WJMR .--- -- .-.
CAMBRIDGE309/20.235001ECBG -.-. -... --.
RUSH CITY277/28.728202EROS .-. --- ...
LITTLE FALLS107/31.535903ELXL .-.. -..- .-..
RIPLEY119/34.940403EXCR -..- -.-. .-.

Airport Services

Fuel available: 100LL
FUEL AVBL 24 HRS WITH CREDIT CARD.
Parking: tiedowns
Airframe service: NONE
Powerplant service: NONE
Bottled oxygen: NONE
Bulk oxygen: NONE

Runway Information

Runway 16/34

Dimensions: 2900 x 150 ft. / 884 x 46 m
Surface: turf, in good condition
Runway edge lights: non-standard
NSTD LOW INTENSITY LIGHTS; SPACING.
Runway edge markings: RY 16/34 MARKED WITH YELLOW CONES.
RUNWAY 16  RUNWAY 34
Latitude: 45-46.558000N45-46.104167N
Longitude: 093-38.061333W093-37.850667W
Elevation: 1100.0 ft.1100.0 ft.
Traffic pattern: leftleft
Runway end identifier lights: nono
Obstructions: 46 ft. trees, 864 ft. from runway, 176 ft. right of centerline, 18:1 slope to clearnone

Airport Ownership and Management from official FAA records

Ownership: Publicly-owned
Owner: CITY OF MILACA
255 - 1ST STREET EAST
MILACA, MN 56353
Phone 320-983-3141
Manager: JOHN OLDENBURG
255 - 1ST STREET EAST
MILACA, MN 56353
Phone (320) 267-6898

Airport Operational Statistics

Aircraft based on the field: 30
Single engine airplanes: 29
Ultralights: 1
    
Aircraft operations: avg 22/day *
62% local general aviation
38% transient general aviation
* for 12-month period ending 31 August 2017

Additional Remarks

ULTRALIGHT TRAFFIC ON & INVOF ARPT.

Instrument Procedures

There are no published instrument procedures at 18Y.

Some nearby airports with instrument procedures:

KPNM - Princeton Municipal Airport (13 nm S)
KJMR - Mora Municipal Airport (17 nm NE)
KCBG - Cambridge Municipal Airport (20 nm SE)
KSTC - St Cloud Regional Airport (22 nm SW)
KROS - Rush City Regional Airport (29 nm E)
 
Loc | Ops | Rwys | IFR | FBO | Links
Com | Nav | Svcs | Stats | Notes


 
Area around 18Y (Milaca Municipal Airport)
 
Road maps at: MapQuest Bing Google
 
Aerial photo
WARNING: Photo may not be current or correct
Aerial photo of 18Y (Milaca Municipal Airport)
Photo by R. Johnson

Do you have a better or more recent aerial photo of Milaca Municipal Airport that you would like to share? If so, please send us your photo.

 
Sectional chart

 
Airport distance calculator
Flying to Milaca Municipal Airport? Find the distance to fly.

From to 18Y

Sunrise and sunset
Times for 21-Jul-2018
 Local
(UTC-5)
 Zulu
(UTC)
Morning civil twilight05:1010:10
Sunrise05:4610:46
Sunset20:5501:55
Evening civil twilight21:3102:31

Current date and time
Zulu (UTC)  21-Jul-2018 16:19:27
Local (UTC-5)  21-Jul-2018 11:19:27
 
METAR
KPNM 
13nm S 
211556Z AUTO 34006KT 10SM SCT022 24/18 A3007 RMK AO2
KJMR 
17nm NE 
211555Z AUTO 36004KT 10SM SCT017 22/17 A3009 RMK AO2
KCBG 
20nm SE 
211556Z AUTO 02005KT 10SM BKN060 23/17 A3006 RMK AO2
KSTC 
22nm SW 
211553Z 33008KT 10SM BKN017 22/18 A3008 RMK AO2 SLP190 T02220178
TAF
KSTC 
22nm SW 
211348Z 2114/2212 34007KT 6SM BR BKN006 FM211500 36007KT P6SM BKN008 FM211600 36008KT P6SM SCT015 BKN040 FM212200 01008KT P6SM FEW035 SCT060 FM220300 04005KT P6SM FEW130
NOTAMs
Click for the latest NOTAMs
NOTAMs are issued by the DoD/FAA and will open in a separate window not controlled by AirNav.

 

 
 

FBO, Fuel Providers, and Aircraft Ground Support

  
 Business Name 
 
 Contact 
 
 Services / Description 
 
Fuel Prices
 
Comments
  
City of Milaca 320-983-6547
no information available

If you are affiliated with City of Milaca and would like to show here your services, contact info, web link, logo, and more, click here
100LL
SS $4.57 
 Updated 18-Jul-2018
 
   1 read write
SS=Self service
Update Fuel Prices
 

Would you like to see your business listed on this page?

 If your business provides an interesting product or service to pilots, flight crews, aircraft, or users of the Milaca Municipal Airport, you should consider listing it here.  To start the listing process, click on the button below
 
Add a business
 

Other Pages about Milaca Municipal Airport

Update a link
 
Copyright © AirNav, LLC. All rights reserved. Privacy Policy  Contact